Regional Weather Roundup
Issued by NWS

Home | Current Version | Previous Version | Graphics & Text | Print | Product List | Glossary On
Versions: 1 2 3 4 5 6 7 8 9 10 11 12 13 14 15 16 17 18 19 20 21 22 23 24 25 26 27
000
ASUS45 KTFX 201210
RWRMT
MONTANA REGIONAL WEATHER ROUNDUP
NATIONAL WEATHER SERVICE GREAT FALLS MT
600 AM MDT THU JUL 20 2017

NOTE: "FAIR" INDICATES FEW OR NO CLOUDS BELOW 12000 FEET WITH NO
SIGNIFICANT WEATHER AND/OR OBSTRUCTIONS TO VISIBILITY.

MTZ001>007-043-201300-
WEST OF THE DIVIDE

CITY           SKY/WX    TMP DP  RH WIND       PRES   REMARKS
KALISPELL      CLEAR     49  43  80 W6        29.94R
MISSOULA       CLEAR     59  44  57 CALM      29.97S
BUTTE          CLEAR     47  38  71 SE7       30.12R
MULLAN PASS    CLEAR     56  31  38 NW8       30.11S
ANACONDA         N/A     54  37  54 SW6       30.07S
DEER LODGE       N/A     48  39  71 CALM      30.08S
EUREKA           N/A     59  41  51 MISG        N/A
HAMILTON         N/A     63  43  48 S7        30.00R
LIBBY            N/A     50  43  76 CALM      29.96R
$$

MTZ008-052>055-201300-
SOUTHWEST MONTANA

CITY           SKY/WX    TMP DP  RH WIND       PRES   REMARKS
BOZEMAN        CLEAR     55  41  59 S7        30.04R
DILLON         CLEAR     54  31  41 S9        30.09R
W YELLOWSTONE  CLEAR     39  32  75 CALM      30.23R
ENNIS          CLEAR     63  23  22 S6        30.14R
THREE FORKS      N/A     48  45  90 CALM      30.02R
$$

MTZ009-010-012-014-046-048-049-054-201300-
EAST SLOPES AND CENTRAL MONTANA

CITY           SKY/WX    TMP DP  RH WIND       PRES   REMARKS
CUT BANK       CLEAR     52  39  61 N6        29.98S
GREAT FALLS    CLEAR     55  35  47 SW7       29.96R
HELENA         CLEAR     61  40  45 CALM      29.98S
CHOTEAU          N/A     57  36  44 W3        30.00S
$$

MTZ011-013-016-021-045-047-050-051-201300-
NORTH CENTRAL MONTANA

CITY           SKY/WX    TMP DP  RH WIND       PRES   REMARKS
HAVRE          CLOUDY    59  41  51 E6        29.92F
LEWISTOWN      CLEAR     63  33  32 SE6       29.99S
N BAR RANCH      N/A     54  32  43 CALM      30.04F
CHINOOK          N/A     57  43  58 CALM      29.94S
$$

MTZ017>020-022>027-061-062-201300-
NORTHEAST MONTANA

CITY           SKY/WX    TMP DP  RH WIND       PRES   REMARKS
JORDAN           N/A     61  48  62 E5        29.93F
SIDNEY         CLEAR     60  55  83 S7        29.95S
WOLF POINT     CLEAR     56  48  74 N6        29.96R
MALTA          MOCLDY    55  50  82 CALM      29.95S
PLENTYWOOD       N/A     63  52  67 E10       29.97S
POPLAR           N/A     57  52  82 N6        29.96S
$$

MTZ028>42-056>058-201300-
SOUTHCENTRAL AND SOUTHEAST MONTANA

CITY           SKY/WX    TMP DP  RH WIND       PRES   REMARKS
BAKER          PTCLDY    67  56  67 SE8       30.02S
BILLINGS       PTCLDY    66  43  43 NW7       29.94R
LIVINGSTON     CLEAR     50  40  68 W5        30.04R
MILES CITY     CLEAR     76  53  44 SE10      29.93F
BIG TIMBER     CLEAR     55  37  50 W8        30.04S
FORSYTH          N/A     72  52  49 E7        29.90S
LAUREL           N/A     60  40  47 CALM      29.95S
$$

REGIONAL REPORTS...DAKOTAS

CITY           SKY/WX    TMP DP  RH WIND       PRES   REMARKS
WILLISTON        N/A    N/A N/A N/A MISG      29.96R
MINOT          CLEAR     59  56  89 N3        30.01R
DICKINSON      CLEAR     67  61  81 SW10      29.99S
BEACH            N/A     66  61  82 S6        30.03S
CROSBY           N/A     57  57 100 E8        30.00S
TIOGA            N/A     61  59  94 E9        30.02R
WATFORD CITY     N/A     64  57  77 CALM      29.98R
BISMARCK       CLOUDY    63  61  93 E3        30.02S
GRAND FORKS    PTCLDY    60  58  92 CALM      29.98R
FARGO          PTCLDY    63  62  97 CALM      29.99R
BUFFALO SD       N/A     68  63  84 SE8       30.00R
RAPID CITY     PTCLDY    66  62  87 NW6       30.07F
$$

REGIONAL REPORTS...WYOMING/IDAHO/WASHINGTON

CITY           SKY/WX    TMP DP  RH WIND       PRES   REMARKS
GILLETTE       MOCLDY    70  55  59 S13       30.09R
SHERIDAN       CLOUDY    64  51  62 CALM      30.00F
BUFFALO WY     PTCLDY    65  52  62 S12       30.09S
CODY           CLOUDY    61  41  47 VRB3      30.09R
YELLOWSTONE LA   N/A     40  36  86 NW3       30.35R
IDAHO FALLS    CLOUDY    56  52  86 N3        30.07S
BOISE          CLEAR     62  38  40 SW3       29.97R
SPOKANE        MOCLDY    64  45  49 S10       29.97R
$$

REGIONAL REPORTS...ALBERTA

CITY           SKY/WX    TMP DP  RH WIND       PRES   REMARKS
EDMONTON       CLEAR     50  50 100 CALM      29.90S
CALGARY        MOCLDY    50  43  76 VRB2      29.91S SMOKE
LETHBRIDGE     PTCLDY    54  41  62 SW6       29.92R
MEDICINE HAT   CLEAR     52  46  82 NE5       29.89F
WATERTON GATE    N/A     43  37  81 SW3         N/A
MILK RIVER       N/A     54  41  62 SW1         N/A
ONEFOUR          N/A     57  41  54 E9          N/A
$$

REGIONAL REPORTS...SASKATCHEWAN

CITY           SKY/WX    TMP DP  RH WIND       PRES   REMARKS
SWIFT CURRENT  CLEAR     54  46  76 S9        29.96S
REGINA         PTCLDY    50  46  87 SE8       30.00R
SASKATOON      MOCLDY    52  48  87 S3        29.95S
CYPRESS HILLS    N/A     59  37  44 SE6         N/A
VAL MARIE        N/A     52  45  76 NE7         N/A
ROCKGLEN         N/A     57  50  77 E6          N/A
$$




USA.gov is the U.S. government's official web portal to all federal, state and local government web resources and services.